www.pogodaiklimat.ru

Погода и климат >> Архив погоды >> Россия >> Красноярский край >> Сухобузимское


ПОГОДА в Сухобузимском

  • Прогноз погоды в Сухобузимском
  • Монитор погоды в Сухобузимском

АРХИВ ПОГОДЫ в Сухобузимском

Время (UTC), дата Ветер
(напр.,м/с)
 
Видим.   Явления Облачность Т
(С)
Тd
(С)
f
(%)
Тe
(С)
Тes
(С)
Комфортность P
(гПа)
Po
(гПа)
Тmin
(С)
Tmax
(С)
R
(мм)
R24
(мм)
S
(см)
12 12.02 Ю 1 20 км 6/0 2000 м
[Ac trans Ci fib]
-25.6 -29.8 68 -29 -29 1035.2 1012.0 -21.6
15 12.02 З 1 20 км 6/0 2000 м
[Ac trans Ci fib]
-24.7 -28.9 68 -28 -28 1035.7 1012.6
18 12.02 ЮЗ 1 20 км 8/0 2000 м
[Ac trans Ci fib]
-22.5 -26.6 69 -26 -26 1036.0 1013.1
21 12.02 З 1 10 км слаб. снег 10/0
[As op]
-21.2 -24.4 75 -24 -24 1036.6 1013.8
00 13.02 штиль 0 10 км слаб. снег 10/0
[As op]
-20.2 -23.1 78 -20 -20 1036.9 1014.2 -27.1 0.8 14
03 13.02 штиль 0 20 км в посл. час снег 9/0
[Cc]
-20.0 -23.6 73 -20 -19 1037.2 1014.5
06 13.02 Ю 3 50 км 9/0
[Cc]
-11.1 -15.5 70 -17 -15 1036.0 1014.1
09 13.02 Ю 4 50 км 8/0 2000 м
[Ac trans Cs]
-10.0 -14.3 71 -17 -17 1035.0 1013.2
12 13.02 ЮЗ 2 20 км 9/0 2000 м
[Ac As]
-9.9 -14.1 71 -14 -14 1035.4 1013.6 -9.6 0.0
15 13.02 ЮЗ 1 20 км 9/0 2000 м
[Ac As]
-10.3 -14.1 74 -13 -13 1035.4 1013.6
18 13.02 штиль 0 20 км 10/0 2000 м
[Ac As]
-12.6 -15.2 81 -13 -13 1035.7 1013.6
21 13.02 З 1 20 км 10/0 2000 м
[Ac As]
-15.5 -17.5 85 -18 -18 1036.1 1013.9
00 14.02 З 1 20 км 9/0 2000 м
[Ac As]
-20.2 -22.4 83 -23 -23 1037.1 1014.4 -20.5 14
03 14.02 ЮЗ 1 20 км 4/0
[Ci fib]
-21.9 -24.7 78 -25 -24 1038.0 1015.1 -21.9
06 14.02 ЮВ 1 20 км 9/0 2000 м
[Ac trans Cs]
-13.7 -18.0 70 -16 -14 1036.6 1014.5
09 14.02 СВ 1 20 км 9/0 2000 м
[Ac lent]
-9.2 -14.4 66 -11 -11 1035.6 1013.9
12 14.02 штиль 0 20 км 9/0
[Ci fib]
-10.9 -14.5 75 -11 -11 1035.6 1013.7 -9.2
15 14.02 З 1 20 км 10/0
[As trans]
-11.7 -14.6 79 -14 -14 1035.6 1013.7
18 14.02 ЮЗ 1 20 км 10/0 2000 м
[Ac As]
-10.7 -14.0 77 -13 -13 1035.2 1013.3
21 14.02 штиль 0 20 км 10/0 2000 м
[Ac As]
-15.5 -17.9 82 -16 -16 1035.3 1013.0
00 15.02 ЮЗ 1 20 км ясно -20.4 -22.5 83 -23 -23 1035.2 1012.5 -20.4 14
03 15.02 З 1 20 км 9/9 1000 м
[Sc]
-17.6 -19.9 82 -20 -20 1035.0 1012.5 -21.5
06 15.02 СВ 1 10 км дымка 10/0
[As op]
-10.5 -14.2 74 -13 -12 1033.3 1011.5
09 15.02 Ю 1 20 км 10/0
[As op]
-5.0 -10.4 66 -7 -7 1031.4 1010.1
12 15.02 Ю 2 20 км 6/0 2000 м
[Ac As Ci fib]
-6.2 -10.8 70 -10 -10 1030.8 1009.4 -4.7
15 15.02 штиль 0 20 км 9/0 2000 м
[Ac trans Ci fib]
-5.3 -9.9 70 -6 -6 1029.6 1008.3
18 15.02 штиль 0 20 км 3/0 2000 м
[Ac trans]
-12.1 -13.9 86 -12 -12 1029.2 1007.4
21 15.02 З 1 20 км 9/0 2000 м
[Ac As]
-11.8 -13.8 85 -14 -14 1028.2 1006.4
00 16.02 З 1 20 км ясно -13.7 -15.5 86 -16 -16 1026.7 1004.8 -13.7 14
03 16.02 штиль 0 4000 м дымка 9/0
[Ci fib]
-12.6 -15.7 78 -13 -11 1025.5 1003.7 -15.7
06 16.02 ЮЗ 2 50 км 9/0
[Cs]
-1.4 -11.3 47 -4 -2 1023.5 1002.6
09 16.02 Ю 3 50 км 10/0
[Ac As Cs]
-1.5 -10.9 49 -6 -5 1022.0 1001.2
12 16.02 Ю 4 20 км 8/0 2000 м
[Ac trans Ci fib]
-1.4 -10.3 51 -6 -6 1020.3 999.5 -0.6
15 16.02 Ю 3
{10}
20 км 9/0
[Cs]
-2.3 -11.1 51 -7 -7 1018.9 998.0
18 16.02 ЮЗ 3 20 км 9/0
[Cs]
-2.5 -11.0 52 -7 -7 1018.1 997.3
21 16.02 ЮЗ 6
{11}
20 км 9/0
[Cs]
-1.2 -8.8 56 -8 -8 1017.8 997.0
00 17.02 ЮЗ 3
{13}
20 км {метель} ясно -4.8 -10.3 65 -10 -10 1018.5 997.5 -5.0 14
03 17.02 ЮЗ 6
{10}
50 км 10/0 2000 м
[Ac As]
-3.6 -9.4 64 -11 -11 1018.6 997.7 -5.3
06 17.02 ЮЗ 5
{10}
50 км 9/0
[Ac lent Cs]
-1.8 -9.0 58 -8 -7 1017.3 996.5
09 17.02 Ю 2 50 км 6/0
[Ac lent Ci fib]
-0.3 -8.1 56 -3 -3 1015.3 994.7
12 17.02 Ю 1 20 км 9/0 2000 м
[Ac trans]
-2.0 -8.2 63 -4 -4 1014.1 993.4 +0.4
15 17.02 Ю 1 20 км 4/0
[Ci fib]
-9.4 -12.8 76 -12 -12 1013.0 991.7
18 17.02 С 1 20 км 6/0
[Ci fib]
-12.3 -14.6 83 -15 -15 1012.1 990.6
21 17.02 СВ 1 20 км 9/0
[Ac trans Ci fib]
-9.1 -12.4 77 -11 -11 1010.7 989.5
00 18.02 СЗ 1 20 км 9/0 2000 м
[Ac trans Ci fib]
-7.7 -11.5 74 -10 -10 1009.9 988.8 -12.8 14
03 18.02 Ю 2 50 км 8/0
[Ci fib]
-0.5 -11.9 42 -3 -2 1009.3 988.8
06 18.02 Ю 4 50 км 9/0
[Cs]
+0.7 -12.3 37 -4 -2 1007.9 987.5
09 18.02 Ю 3 50 км 8/0
[As trans Ci fib]
+0.8 -12.6 36 -3 -2 1007.2 986.8
12 18.02 В 1 20 км 8/0
[As trans]
+0.3 -10.6 44 -1 -1 1006.9 986.5 +1.6
15 18.02 ЮЗ 5 20 км 10/0
[Ac As]
+1.1 -9.8 44 -4 -4 1007.2 986.8
18 18.02 Ю 3 20 км 10/10 1000 м
[Sc]
+0.9 -7.4 54 -3 -3 1008.1 987.7
21 18.02 ЮЗ 3 20 км 9/9 1000 м
[Sc]
+0.4 -7.4 56 -4 -4 1009.2 988.7
00 19.02 ЮЗ 2 20 км 10/10 1000 м
[Sc]
-0.5 -7.1 61 -4 -4 1010.7 990.2 -1.8 11
03 19.02 ЮЗ 2 50 км 10/8 600 м
[Cb cap Ac As]
+0.2 -5.9 64 -3 -3 1012.6 992.1
06 19.02 ЮЗ 5
{10}
50 км 9/9 600 м
[Cb cap]
+1.2 -3.5 71 -4 -4 1014.7 994.2

 

Местоположение метеостанции Сухобузимское (Красноярский край, Россия): широта 56.50 долгота 93.28 высота над уровнем моря 164 м.

В архиве по умолчанию представлена погода в Сухобузимском за последнюю неделю. Архивные данные за месяц целиком и за предыдущие месяцы, начиная с января 2011 года, Вы можете получить, выбрав интересующий диапазон дат из раскрывающегося списка и нажав кнопку "Ввод!".


*Определитесь, кто Вы:
робот инопланетянин человек

Внимание! Время в таблицах - всемирное. Для получения местного времени необходимо прибавить поправку, которая равна 7 ч.

Смотрите также архив погоды в соседних городах и на ближайших метеорологических станциях:

Погода в Погорельском Бору (Красноярский край, Россия) (25 км)
Погода в Железногорске (Красноярский край, Россия) (31 км)
Погода в Большой Мурте (Красноярский край, Россия) (45 км)
Погода в Минино (Красноярский край, Россия) (59 км)
Погода в Емельяново (Красноярский край, Россия) (61 км)
Погода в Красноярске (Красноярский край, Россия) (62 км)
Погода в Роевом Ручье (Красноярский край, Россия) (68 км)
Погода в Каче (Красноярский край, Россия) (79 км)
Погода в Шумихе (Красноярский край, Россия) (86 км)
Погода в Шалинском (Красноярский край, Россия) (92 км)

Пояснения к столбцам:

Ветер - указаны скорость ветра в м/с - средняя за 10 мин, порывы в срок и между сроками (в фигурных скобках) и направление, откуда дует ветер: С - северный, СВ - северо-восточный, В - восточный, ЮВ - юго-восточный, Ю - южный, ЮЗ - юго-западный, З - западный, СЗ - северо-западный.
Видимость - горизонтальная дальность видимости в метрах или километрах. При видимости от 1 до 10 км при отсутствии осадков обычно наблюдается дымка, при ухудшении видимости до 1 км и менее - туман. В сухую погоду видимость может ухудшаться дымом, пылью или мглою.
Явления - указаны атмосферные явления, наблюдавшиеся в срок или в последний час перед сроком; фигурными скобками обозначены явления, наблюдавшиеся между сроками (за 1-3 часа до срока); квадратными скобками обозначены град или гололедные отложения с указанием их диаметра в мм.
Облачность - указаны через наклонную черту общая и нижняя облачность в баллах и высота нижней границы облаков в метрах; квадратными скобками обозначены формы облаков: Ci - перистые, Cs - перисто-слоистые, Cc - перисто-кучевые, Ac - высококучевые, As - высокослоистые, Sc - слоисто-кучевые, Ns - слоисто-дождевые, Cu - кучевые, Cb - кучево-дождевые. Подробнее классификацию облаков см. в Атласе облаков (PDF).
T - Температура воздуха - температура, измеренная на высоте 2 м над землей.
Td - Температура точки росы - температура, при понижении до которой содержащийся в воздухе водяной пар достигнет насыщения.
f - Относительная влажность воздуха - влажноcть воздуха, измеренная на высоте 2 м над землей.
Te - Эффективная температура - температура, которую ощущает одетый по сезону человек в тени. Характеристика душности погоды. При расчете учитывается влияние влажности воздуха и скорости ветра на теплоощущения человека.
Tes - Эффективная температура на солнце - температура, которую ощущает человек, с поправкой на солнечный нагрев. Характеристика знойности погоды. Зависит от высоты солнца над горизонтом, облачности и скорости ветра. Ночью, в пасмурную погоду, а также при ветре 12 м/с и более поправка равна нулю.
P - Атмосферное давление - приведенное к уровню моря атмосферное давление.
Po - Атмосферное давление - измеренное на уровне метеостанции атмосферное давление.
Tmin - Минимальная температура - минимум температуры воздуха на высоте 2 м над землей.
Tmax - Максимальная температура - максимум температуры воздуха на высоте 2 м над землей.
R - Количество осадков - Количество выпавших осадков за период времени, мм. При наведении курсора мыши на число - период времени, за который выпало указанное количество осадков.
R24 - Количество осадков - Количество выпавших осадков за 24 часа, мм.
S - Снежный покров - Высота снежного покрова, см. При наведении курсора мыши на число - состояние снежного покрова и степень покрытия местности в баллах.